This is the latest recevied weather packets stored in our database for station/object KF4WSW-13. If no packets are shown the sender has not sent any weather packets the latest 10 day(s).
| Time | Temp. | Humidity | Pressure | Rain* | Wind** | Luminosity | Snow |
|---|---|---|---|---|---|---|---|
| 1777989512 | 23.89° C | 71% | 1014.2 hPa | 0 mm | - | 491 W/m² | - |
| 1777989208 | 24.44° C | 71% | 1014.1 hPa | 0 mm | - | 430 W/m² | - |
| 1777988904 | 23.89° C | 73% | 1014.1 hPa | 0 mm | - | 459 W/m² | - |
| 1777988601 | 23.89° C | 74% | 1013.9 hPa | 0 mm | - | 456 W/m² | - |
| 1777988297 | 23.89° C | 75% | 1013.9 hPa | 0 mm | - | 432 W/m² | - |
| 1777987995 | 23.89° C | 73% | 1014 hPa | 0 mm | - | 393 W/m² | - |
| 1777987690 | 23.89° C | 75% | 1014 hPa | 0 mm | - | 365 W/m² | - |
| 1777987387 | 23.89° C | 75% | 1013.8 hPa | 0 mm | - | 379 W/m² | - |
| 1777987085 | 23.33° C | 75% | 1013.8 hPa | 0 mm | - | 324 W/m² | - |
| 1777986782 | 23.33° C | 77% | 1013.7 hPa | 0 mm | - | 289 W/m² | - |
| 1777986479 | 23.33° C | 77% | 1013.7 hPa | 0 mm | - | 331 W/m² | - |
| 1777986178 | 22.78° C | 78% | 1013.7 hPa | 0 mm | - | 290 W/m² | - |
| 1777985874 | 22.78° C | 78% | 1014 hPa | 0 mm | - | 305 W/m² | - |
| 1777985572 | 22.22° C | 80% | 1013.9 hPa | 0 mm | - | 276 W/m² | - |
| 1777985268 | 22.22° C | 80% | 1013.8 hPa | 0 mm | - | 110 W/m² | - |
| 1777984965 | 22.22° C | 81% | 1013.8 hPa | 0 mm | - | 101 W/m² | - |
| 1777984660 | 22.22° C | 80% | 1013.8 hPa | 0 mm | - | 109 W/m² | - |
| 1777984357 | 22.22° C | 80% | 1013.6 hPa | 0 mm | - | 262 W/m² | - |
| 1777984054 | 22.22° C | 81% | 1013.5 hPa | 0 mm | - | 249 W/m² | - |
| 1777983751 | 21.67° C | 82% | 1013.9 hPa | 0 mm | - | 207 W/m² | - |
| 1777983448 | 21.11° C | 83% | 1013.7 hPa | 0 mm | - | 165 W/m² | - |
| 1777983144 | 21.11° C | 85% | 1013.9 hPa | 0 mm | - | 153 W/m² | - |
| 1777982841 | 20.56° C | 86% | 1014 hPa | 0 mm | - | 128 W/m² | - |
| 1777982537 | 20.56° C | 86% | 1014 hPa | 0 mm | - | 124 W/m² | - |
| 1777982235 | 20° C | 87% | 1013.8 hPa | 0 mm | - | 106 W/m² | - |
* Rain latest hour (hover to see other rain measurements)
** Current wind speed in m/s (hover to see current wind gust speed)